[[{"header":{"parameterUnit":"m.s-1","parameterCategory":1,"la1":30.2991,"la2":30.254,"lo1":-89.0895,"lo2":-89.0444,"dy":0.0017,"dx":0.0017,"nx":28,"ny":28,"refTime":"2024-09-28T21:00:00:Z","depth":0,"parameterNumber":2,"parameterNumberName":"U-component_of_WINDS"},"data":[0,0,0,0,0,0,0,0,0,0,0,0,0,0,0,0,0,0,0,0,0,0,0,0,0,0,0,0,0,0,0,0,0,0,0,0,0,0,0,0,0,0,0,0,0,0,0,0,0,0,0,0,0,0,0,0,0,0,5.5063,5.5063,0,5.5067,5.5067,5.5067,5.4999,5.4997,5.4995,5.4993,5.4998,5.5,5.5002,0,0,0,0,0,0,0,0,0,0,0,0,0,5.4998,5.4999,5.5063,5.5063,5.5063,5.5067,5.5067,5.5067,5.4999,5.4997,5.4995,5.4993,5.4998,5.5,5.5002,0,0,0,0,0,0,0,0,0,0,0,0,0,5.5016,5.5,5.5063,5.503,5.5027,5.5067,5.5067,5.5067,5.5,5.4997,5.4994,5.4992,5.4997,5.5,5.5002,5.5075,0,0,5.5011,5.5012,0,0,0,0,0,0,0,0,5.5015,5.5019,5.5034,5.5032,5.5029,5.503,5.5046,5.507,5.5,5.501,5.4993,5.499,5.5011,5.5012,5.5019,5.5075,5.5075,5.5011,5.5013,5.5014,5.5015,0,0,0,0,0,0,0,5.5014,5.5018,5.5064,5.5035,5.5031,5.5015,5.5014,5.505,5.5026,5.5009,5.5004,5.5005,5.5009,5.5017,5.5019,5.5075,5.5011,5.5014,5.5015,5.5016,5.5192,5.5194,0,0,0,0,0,0,5.5017,5.5018,5.5064,5.5064,5.5015,5.5018,5.5018,5.5032,5.5025,5.5022,5.5008,5.5002,5.5013,5.5016,5.5019,5.5103,5.5014,5.5017,5.5018,5.5189,5.5192,5.5195,0,0,0,0,0,0,5.5016,5.5022,5.5064,5.504,5.5044,5.5022,5.5039,5.5034,5.5041,5.5024,5.502,5.502,5.5011,5.5015,5.5062,5.5102,5.5018,5.502,5.5185,5.519,5.5194,5.5273,0,0,0,0,0,0,5.5014,5.5022,5.5049,5.5041,5.5045,5.5107,5.5041,5.5036,5.5046,5.5039,5.5035,5.5032,5.5009,5.5058,5.5064,5.5105,5.5023,5.5181,5.5187,5.5192,5.5266,5.5279,5.529,0,0,0,0,0,5.5012,5.5071,5.5051,5.5057,5.5079,5.5109,5.5112,5.5085,5.505,5.5077,5.5066,5.5032,5.5097,5.5063,5.507,5.5112,5.5179,5.5185,5.5192,5.5261,5.5277,5.529,0,0,0,0,0,0,5.5084,5.5069,5.5046,5.5104,5.5108,5.5097,5.513,5.5102,5.5117,5.5109,5.5076,5.5076,5.5128,5.5124,5.5087,5.5182,5.5132,5.514,5.5182,5.5197,5.5208,5.5208,5.5025,0,0,0,0,0,5.5107,5.5132,5.5118,5.517,5.5174,5.5152,5.5164,5.5144,5.5147,5.5148,5.5141,5.5145,5.5167,5.5182,5.5201,5.5266,5.5264,5.5298,5.531,5.532,5.5327,5.5362,5.5377,5.5218,5.5217,5.5217,0,0,5.5153,5.5148,5.5167,5.5185,5.5185,5.5213,5.5154,5.5186,5.5206,5.5153,5.5196,5.5191,5.5194,5.5251,5.5275,5.525,5.5371,5.5329,5.5337,5.5339,5.537,5.5385,5.5399,5.5222,5.5221,5.5221,0,0,5.5252,5.5252,5.5295,5.5297,5.5299,5.5285,5.5296,5.5289,5.5284,5.5327,5.5288,5.5312,5.535,5.5354,5.5361,5.5463,5.5432,5.547,5.5533,5.5567,5.5579,5.559,5.5626,5.564,5.5478,5.5478,5.5478,0,5.531,5.535,5.5321,5.5355,5.5364,5.5318,5.5362,5.5366,5.5375,5.5382,5.5354,5.5401,5.5399,5.5456,5.5481,5.5489,5.55,5.547,5.558,5.5591,5.56,5.5634,5.5648,5.5483,5.5482,5.5482,5.5481,0,5.5421,5.5449,5.5484,5.5493,5.5507,5.5546,5.5523,5.5541,5.5519,5.5508,5.5553,5.555,5.5568,5.558,5.5559,5.5634,5.5618,5.5586,5.5534,5.5621,5.5652,5.5665,5.5489,5.5488,5.5486,5.5485,0,0,5.5563,5.5557,5.557,5.5574,5.5574,5.5595,5.5633,5.565,5.5666,5.5674,5.5704,5.5738,5.5708,5.5716,5.5696,5.5726,5.5807,5.5689,5.5689,5.5711,5.5889,5.5913,5.5928,5.5787,5.5789,5.5791,5.5889,0,5.5659,5.5722,5.5698,5.5763,5.5789,5.5746,5.5779,5.5783,5.5774,5.5795,5.5785,5.581,5.5768,5.5773,5.5801,5.5791,5.5842,5.5784,5.5815,5.5816,5.5814,5.5945,5.597,5.6061,5.5901,5.5903,5.5904,0,5.5779,5.5792,5.5859,5.5855,5.5865,5.5895,5.5909,5.593,5.5934,5.5925,5.5935,5.5909,5.5946,5.5896,5.5947,5.5908,5.5919,5.5917,5.592,5.592,5.5865,5.5948,5.609,5.6104,5.5923,5.5922,5.5921,0,5.5875,5.591,5.5955,5.596,5.5956,5.5978,5.5978,5.5979,5.5991,5.6004,5.6011,5.6029,5.6038,5.6052,5.6031,5.5997,5.6085,5.6034,5.6079,5.6079,5.6098,5.6097,5.6243,5.6108,5.6108,5.6107,5.6107,0,5.5984,5.6027,5.5998,5.6026,5.6073,5.6045,5.6093,5.6088,5.609,5.6116,5.6081,5.6106,5.6077,5.61,5.6084,5.6129,5.6133,5.6127,5.6122,5.613,5.613,5.6136,5.6128,5.6111,5.611,5.6109,5.6109,0,5.6099,5.6081,5.6127,5.6121,5.612,5.6155,5.615,5.6175,5.6164,5.6198,5.6204,5.6187,5.6213,5.6194,5.6219,5.6208,5.6266,5.6253,5.6265,5.626,5.6306,5.6302,5.646,5.6479,5.6333,5.6334,5.6336,0,5.6169,5.6201,5.6198,5.6213,5.6215,5.624,5.6252,5.6227,5.6241,5.6249,5.6273,5.6296,5.6312,5.6354,5.6344,5.6364,5.635,5.6404,5.6352,5.6359,5.6349,5.6347,5.635,5.6414,5.6415,5.6417,5.6418,0,5.6295,5.6285,5.6304,5.632,5.6336,5.6348,5.6357,5.6372,5.6346,5.6364,5.639,5.6402,5.6428,5.6451,5.6467,5.6466,5.6438,5.6435,5.6446,5.6453,5.6458,5.6455,5.6292,5.6431,5.6429,5.6428,5.6428,5.6427,5.6388,5.6415,5.6417,5.644,5.6444,5.6454,5.6478,5.647,5.6491,5.6509,5.6494,5.6524,5.6528,5.6546,5.655,5.6573,5.6551,5.6568,5.6572,5.6576,5.6582,5.6456,5.6576,5.6576,5.6576,5.6575,5.6575,0,5.6511,5.6511,5.6533,5.6546,5.6565,5.6537,5.6546,5.6563,5.659,5.6596,5.6613,5.6643,5.6665,5.6657,5.6677,5.6697,5.6685,5.6703,5.6701,5.6701,5.6601,5.6589,5.6713,5.6713,5.6713,5.6713,5.6713,5.6713,5.6578,5.6621,5.6612,5.6658,5.6657,5.6686,5.6694,5.6703,5.6707,5.6742,5.676,5.6755,5.6755,5.6775,5.6794,5.6791,5.68,5.6823,5.6815,5.6722,5.6708,5.6695,5.6683,5.6825,5.6825,5.6913,5.6914,5.6914]},{"header":{"parameterUnit":"m.s-1","parameterCategory":1,"la1":30.2991,"la2":30.254,"lo1":-89.0895,"lo2":-89.0444,"dy":0.0017,"dx":0.0017,"nx":28,"ny":28,"refTime":"2024-09-28T21:00:00:Z","depth":0,"parameterNumber":3,"parameterNumberName":"V-component_of_WINDS"},"data":[0,0,0,0,0,0,0,0,0,0,0,0,0,0,0,0,0,0,0,0,0,0,0,0,0,0,0,0,0,0,0,0,0,0,0,0,0,0,0,0,0,0,0,0,0,0,0,0,0,0,0,0,0,0,0,0,0,0,3.5757,3.5757,0,3.5805,3.5806,3.5806,3.5809,3.5809,3.5808,3.5808,3.5854,3.5856,3.5857,0,0,0,0,0,0,0,0,0,0,0,0,0,3.5662,3.5664,3.5757,3.5757,3.5758,3.5805,3.5806,3.5806,3.581,3.5809,3.5808,3.5808,3.5853,3.5855,3.5858,0,0,0,0,0,0,0,0,0,0,0,0,0,3.5706,3.5665,3.5756,3.5765,3.5766,3.5805,3.5806,3.5806,3.581,3.5809,3.5808,3.5807,3.5853,3.5855,3.5858,3.589,0,0,3.5866,3.5867,0,0,0,0,0,0,0,0,3.5704,3.571,3.5763,3.5765,3.5766,3.58,3.5789,3.5834,3.581,3.5793,3.5808,3.5807,3.5837,3.584,3.5851,3.5892,3.5894,3.5866,3.5868,3.5869,3.5869,0,0,0,0,0,0,0,3.5701,3.5708,3.5776,3.5764,3.5766,3.5765,3.5771,3.5798,3.5819,3.5795,3.5795,3.5801,3.5837,3.5849,3.5852,3.5895,3.5866,3.5868,3.587,3.5871,3.5961,3.5962,0,0,0,0,0,0,3.5697,3.5705,3.5774,3.5777,3.5732,3.5767,3.5774,3.579,3.5818,3.5822,3.5801,3.5801,3.5845,3.5849,3.5854,3.5891,3.5869,3.5871,3.5873,3.596,3.5961,3.5962,0,0,0,0,0,0,3.5695,3.5703,3.5772,3.5741,3.575,3.577,3.5789,3.5792,3.5803,3.5824,3.5827,3.581,3.5844,3.585,3.588,3.5893,3.5872,3.5875,3.5959,3.596,3.5962,3.5967,0,0,0,0,0,0,3.5692,3.5702,3.5716,3.5742,3.5752,3.5799,3.579,3.5793,3.5808,3.5808,3.5832,3.5835,3.5844,3.5877,3.5883,3.5896,3.5877,3.5958,3.596,3.5961,3.5966,3.5969,3.5971,0,0,0,0,0,3.5688,3.5715,3.5716,3.5725,3.5769,3.58,3.5806,3.5816,3.5809,3.5822,3.5835,3.5835,3.5891,3.588,3.5887,3.5901,3.5957,3.5959,3.5961,3.5965,3.5968,3.5971,0,0,0,0,0,0,3.5689,3.5719,3.572,3.5756,3.5776,3.5801,3.5817,3.5819,3.584,3.5839,3.585,3.5855,3.5885,3.5896,3.5883,3.5932,3.5923,3.5926,3.5924,3.5927,3.5929,3.5925,3.5879,0,0,0,0,0,3.5694,3.5718,3.5742,3.5771,3.5781,3.5797,3.5811,3.5817,3.5837,3.5845,3.586,3.5879,3.59,3.5914,3.5935,3.5968,3.5972,3.5981,3.5983,3.5985,3.5988,3.6004,3.6007,3.5968,3.5968,3.5968,0,0,3.5703,3.5722,3.5737,3.5772,3.5787,3.581,3.5804,3.5829,3.5845,3.5849,3.5878,3.589,3.5911,3.5941,3.5956,3.5952,3.6,3.5988,3.5989,3.5991,3.6006,3.601,3.6013,3.597,3.5969,3.5969,0,0,3.5731,3.5749,3.5775,3.579,3.5815,3.5825,3.5831,3.5855,3.5863,3.5893,3.5895,3.5914,3.5952,3.5966,3.5978,3.601,3.601,3.6017,3.6029,3.6044,3.6047,3.605,3.6059,3.6063,3.6019,3.6019,3.6019,0,3.574,3.5776,3.5787,3.5812,3.5826,3.5831,3.5855,3.587,3.5899,3.5908,3.5903,3.5949,3.5964,3.5997,3.6005,3.6015,3.6021,3.6014,3.6046,3.6049,3.6051,3.6061,3.6064,3.602,3.602,3.602,3.602,0,3.5783,3.5808,3.5825,3.5854,3.587,3.5895,3.5908,3.5923,3.5928,3.5938,3.5967,3.5984,3.6008,3.6017,3.6021,3.605,3.6047,3.6044,3.6035,3.6055,3.6064,3.6068,3.602,3.602,3.602,3.602,0,0,3.5814,3.5848,3.5854,3.5866,3.5892,3.5911,3.5934,3.5958,3.597,3.599,3.6008,3.6039,3.6036,3.605,3.6056,3.6069,3.6091,3.6065,3.6065,3.6068,3.6121,3.6122,3.6127,3.6092,3.6092,3.6093,3.6119,0,3.5844,3.5887,3.5898,3.5934,3.5956,3.596,3.598,3.5997,3.6007,3.6025,3.6036,3.6057,3.6053,3.6061,3.6074,3.6086,3.6102,3.6084,3.6107,3.6108,3.6101,3.6131,3.6133,3.6157,3.6123,3.6123,3.6124,0,3.5885,3.5906,3.5944,3.5966,3.5975,3.5994,3.6015,3.6034,3.6052,3.6058,3.6073,3.6077,3.61,3.609,3.612,3.6108,3.6118,3.6125,3.6126,3.6128,3.6116,3.6132,3.6165,3.6168,3.613,3.6129,3.6129,0,3.5901,3.5939,3.5966,3.5977,3.6003,3.6015,3.6027,3.6045,3.6058,3.6076,3.6085,3.6105,3.6116,3.6132,3.614,3.6133,3.6169,3.6161,3.6173,3.6173,3.618,3.6179,3.6213,3.6189,3.6189,3.6188,3.6188,0,3.5933,3.5956,3.5974,3.599,3.6016,3.6026,3.6051,3.6062,3.6077,3.6095,3.61,3.6116,3.6127,3.6144,3.6151,3.6174,3.6179,3.6184,3.6185,3.6183,3.6182,3.6188,3.6186,3.6189,3.6189,3.6189,3.6189,0,3.5955,3.5968,3.5998,3.602,3.6026,3.6044,3.6062,3.6077,3.6087,3.6109,3.6115,3.613,3.615,3.6161,3.6186,3.6191,3.6216,3.6217,3.621,3.621,3.6221,3.6219,3.626,3.6265,3.6238,3.6238,3.6238,0,3.5973,3.5991,3.6015,3.6028,3.604,3.606,3.6073,3.6084,3.6097,3.6119,3.6131,3.6152,3.6169,3.6201,3.6213,3.6232,3.6233,3.6245,3.6235,3.6232,3.6231,3.6229,3.623,3.6247,3.6247,3.6247,3.6247,0,3.6004,3.601,3.603,3.6051,3.6067,3.6084,3.6101,3.6111,3.6124,3.6139,3.616,3.6173,3.6199,3.6218,3.6238,3.6248,3.6249,3.6251,3.6254,3.6251,3.6246,3.6247,3.6213,3.6249,3.6249,3.6249,3.6249,3.6249,3.6024,3.604,3.6059,3.608,3.6094,3.6109,3.6124,3.6136,3.6154,3.6176,3.6181,3.6203,3.6219,3.6246,3.6256,3.6272,3.6269,3.6275,3.6276,3.6277,3.6277,3.6244,3.6276,3.6276,3.6276,3.6276,3.6276,0,3.6054,3.6067,3.6086,3.611,3.6126,3.6127,3.6145,3.6158,3.6178,3.6193,3.621,3.6233,3.6252,3.6265,3.6284,3.6294,3.6295,3.6299,3.6297,3.6299,3.6279,3.6274,3.6298,3.6298,3.6298,3.6298,3.6297,3.6297,3.6072,3.6097,3.6104,3.6136,3.6148,3.617,3.618,3.6193,3.6206,3.6232,3.6248,3.6257,3.6271,3.629,3.6307,3.631,3.6316,3.632,3.6323,3.6303,3.6301,3.6299,3.6293,3.6321,3.6321,3.6341,3.6341,3.6341]}]]